[[{"header":{"parameterUnit":"m.s-1","parameterCategory":1,"la1":30.2991,"la2":30.254,"lo1":-89.0895,"lo2":-89.0444,"dy":0.0017,"dx":0.0017,"nx":28,"ny":28,"refTime":"2023-09-25T21:00:00:Z","depth":0,"parameterNumber":2,"parameterNumberName":"U-component_of_WINDS"},"data":[0,0,0,0,0,0,0,0,0,0,0,0,0,0,0,0,0,0,0,0,0,0,0,0,0,0,0,0,0,0,0,0,0,0,0,0,0,0,0,0,0,0,0,0,0,0,0,0,0,0,0,0,0,0,0,0,0,0,-1.825,-1.825,0,-1.8292,-1.8292,-1.8293,-1.8213,-1.8211,-1.8208,-1.8205,-1.8259,-1.8262,-1.8266,0,0,0,0,0,0,0,0,0,0,0,0,0,-1.8109,-1.8112,-1.825,-1.825,-1.8251,-1.8292,-1.8293,-1.8293,-1.8214,-1.821,-1.8207,-1.8204,-1.8257,-1.8262,-1.8267,0,0,0,0,0,0,0,0,0,0,0,0,0,-1.8163,-1.8113,-1.8249,-1.8216,-1.8213,-1.8292,-1.8293,-1.8293,-1.8214,-1.821,-1.8206,-1.8203,-1.8256,-1.8262,-1.8267,-1.8384,0,0,-1.8285,-1.8288,0,0,0,0,0,0,0,0,-1.816,-1.8168,-1.822,-1.8218,-1.8215,-1.8243,-1.8262,-1.8324,-1.8215,-1.8214,-1.8205,-1.8201,-1.8257,-1.8263,-1.828,-1.8386,-1.8389,-1.8286,-1.8289,-1.8292,-1.8293,0,0,0,0,0,0,0,-1.8156,-1.8166,-1.8267,-1.8221,-1.8218,-1.8202,-1.8205,-1.8274,-1.8258,-1.8214,-1.8208,-1.8214,-1.8255,-1.8274,-1.8281,-1.8389,-1.8286,-1.8291,-1.8294,-1.8297,-1.8596,-1.8601,0,0,0,0,0,0,-1.8155,-1.8163,-1.8265,-1.8268,-1.8177,-1.8207,-1.8211,-1.8238,-1.8257,-1.8256,-1.8217,-1.821,-1.8266,-1.8274,-1.8282,-1.8422,-1.8292,-1.8297,-1.8301,-1.8592,-1.8597,-1.8602,0,0,0,0,0,0,-1.8153,-1.8165,-1.8263,-1.8214,-1.8225,-1.8214,-1.8246,-1.8241,-1.826,-1.8259,-1.8257,-1.8239,-1.8264,-1.8274,-1.8359,-1.8423,-1.83,-1.8305,-1.8587,-1.8594,-1.86,-1.8701,0,0,0,0,0,0,-1.8149,-1.8165,-1.8207,-1.8215,-1.8228,-1.8337,-1.8249,-1.8245,-1.8269,-1.826,-1.8279,-1.8279,-1.8261,-1.8351,-1.8365,-1.8428,-1.831,-1.8581,-1.859,-1.8598,-1.8692,-1.871,-1.8726,0,0,0,0,0,-1.8144,-1.8235,-1.8209,-1.8222,-1.828,-1.8341,-1.8348,-1.8324,-1.8275,-1.8319,-1.8318,-1.8278,-1.8412,-1.836,-1.8375,-1.8442,-1.8577,-1.8587,-1.8597,-1.8685,-1.8707,-1.8726,0,0,0,0,0,0,-1.8238,-1.8236,-1.8207,-1.8303,-1.8322,-1.8327,-1.8382,-1.8348,-1.8384,-1.8375,-1.8345,-1.835,-1.8442,-1.845,-1.8392,-1.8557,-1.8487,-1.8501,-1.8548,-1.857,-1.8586,-1.8584,-1.8315,0,0,0,0,0,-1.8269,-1.8315,-1.8312,-1.8397,-1.8408,-1.8393,-1.8419,-1.8398,-1.8418,-1.8427,-1.8433,-1.8457,-1.8505,-1.8537,-1.8581,-1.8692,-1.8697,-1.8745,-1.8762,-1.8776,-1.8789,-1.8852,-1.8874,-1.8635,-1.8635,-1.8635,0,0,-1.8335,-1.8339,-1.8371,-1.8416,-1.8429,-1.8481,-1.8401,-1.8459,-1.8499,-1.8437,-1.8518,-1.8523,-1.8548,-1.8647,-1.8691,-1.8657,-1.8856,-1.8789,-1.88,-1.8806,-1.8864,-1.8887,-1.8907,-1.8642,-1.864,-1.8639,0,0,-1.8482,-1.8489,-1.8561,-1.8575,-1.8594,-1.8583,-1.8601,-1.8611,-1.8611,-1.8691,-1.8646,-1.8694,-1.8776,-1.8796,-1.8818,-1.8973,-1.8939,-1.8988,-1.9078,-1.9139,-1.9158,-1.9175,-1.9233,-1.9254,-1.9,-1.9001,-1.9001,0,-1.8563,-1.8637,-1.8604,-1.8665,-1.8688,-1.863,-1.8706,-1.8722,-1.8756,-1.8774,-1.8734,-1.8836,-1.8849,-1.8953,-1.8991,-1.9009,-1.9031,-1.8987,-1.9157,-1.9174,-1.9189,-1.9244,-1.9266,-1.9007,-1.9006,-1.9005,-1.9005,0,-1.8737,-1.8789,-1.8846,-1.8877,-1.8905,-1.8974,-1.8954,-1.8987,-1.8964,-1.8959,-1.9042,-1.9055,-1.9101,-1.9124,-1.9102,-1.9226,-1.9205,-1.9161,-1.9091,-1.9218,-1.927,-1.9291,-1.9015,-1.9013,-1.9011,-1.901,0,0,-1.8947,-1.8957,-1.8979,-1.8993,-1.9009,-1.9051,-1.9118,-1.916,-1.9191,-1.9216,-1.9274,-1.9344,-1.9304,-1.9328,-1.9309,-1.9362,-1.9488,-1.9312,-1.9313,-1.9347,-1.9629,-1.9664,-1.9689,-1.9464,-1.9468,-1.9471,-1.9628,0,-1.9095,-1.9206,-1.9179,-1.9291,-1.9341,-1.9287,-1.9345,-1.9364,-1.9361,-1.9405,-1.9403,-1.9454,-1.9396,-1.9411,-1.946,-1.9462,-1.9545,-1.945,-1.9522,-1.9525,-1.952,-1.9715,-1.9752,-1.99,-1.9648,-1.9651,-1.9654,0,-1.9283,-1.9313,-1.9429,-1.9439,-1.9459,-1.9511,-1.9549,-1.959,-1.9611,-1.9606,-1.9632,-1.9602,-1.9672,-1.9599,-1.9697,-1.9633,-1.9661,-1.9666,-1.9672,-1.968,-1.9599,-1.9733,-1.9946,-1.997,-1.9685,-1.9682,-1.968,0,-1.9428,-1.9497,-1.9576,-1.959,-1.9602,-1.9641,-1.9648,-1.9665,-1.9692,-1.9726,-1.9744,-1.9787,-1.9811,-1.9846,-1.983,-1.9777,-1.9933,-1.9857,-1.9934,-1.9934,-1.9971,-1.997,-2.0196,-1.9984,-1.9983,-1.9983,-1.9983,0,-1.9599,-1.9673,-1.9642,-1.9691,-1.9773,-1.9742,-1.9826,-1.9827,-1.9843,-1.9894,-1.985,-1.99,-1.9874,-1.9923,-1.9911,-1.9996,-2.0006,-2.0007,-2.0004,-2.0013,-2.0013,-2.0033,-2.0024,-1.9989,-1.9988,-1.9986,-1.9985,0,-1.9776,-1.9757,-1.984,-1.9844,-1.9847,-1.9908,-1.9913,-1.9961,-1.9953,-2.0019,-2.0033,-2.0024,-2.0079,-2.0065,-2.0126,-2.0118,-2.0227,-2.0209,-2.0219,-2.0216,-2.0294,-2.0288,-2.0544,-2.0577,-2.034,-2.0342,-2.0344,0,-1.9887,-1.9943,-1.9952,-1.9981,-1.9991,-2.004,-2.0067,-2.0038,-2.0069,-2.0098,-2.0143,-2.0194,-2.0233,-2.0325,-2.0326,-2.0373,-2.0358,-2.0444,-2.0365,-2.0374,-2.0364,-2.0362,-2.0369,-2.0461,-2.0464,-2.0466,-2.0468,0,-2.0088,-2.0076,-2.0115,-2.0152,-2.0185,-2.0213,-2.0238,-2.0266,-2.0239,-2.0277,-2.0331,-2.0362,-2.0423,-2.0476,-2.0519,-2.053,-2.0498,-2.0492,-2.0513,-2.0525,-2.053,-2.0532,-2.0265,-2.0487,-2.0485,-2.0484,-2.0483,-2.0482,-2.0238,-2.0286,-2.03,-2.0346,-2.036,-2.0385,-2.043,-2.0427,-2.0471,-2.0517,-2.0498,-2.0561,-2.0583,-2.0638,-2.0654,-2.0706,-2.0674,-2.0704,-2.0712,-2.0721,-2.0732,-2.0518,-2.0714,-2.0713,-2.0713,-2.0712,-2.0712,0,-2.044,-2.0445,-2.0487,-2.0522,-2.0559,-2.0519,-2.0545,-2.058,-2.0635,-2.0656,-2.0695,-2.0759,-2.081,-2.0814,-2.0863,-2.0904,-2.0891,-2.0919,-2.0917,-2.0921,-2.0756,-2.0734,-2.0929,-2.0929,-2.0929,-2.0929,-2.0929,-2.0929,-2.0549,-2.0628,-2.0618,-2.0705,-2.0711,-2.0771,-2.0789,-2.0813,-2.083,-2.0902,-2.0943,-2.0944,-2.096,-2.1009,-2.1055,-2.1056,-2.1078,-2.1113,-2.1108,-2.0954,-2.0932,-2.0912,-2.0892,-2.1117,-2.1117,-2.1269,-2.1271,-2.1272]},{"header":{"parameterUnit":"m.s-1","parameterCategory":1,"la1":30.2991,"la2":30.254,"lo1":-89.0895,"lo2":-89.0444,"dy":0.0017,"dx":0.0017,"nx":28,"ny":28,"refTime":"2023-09-25T21:00:00:Z","depth":0,"parameterNumber":3,"parameterNumberName":"V-component_of_WINDS"},"data":[0,0,0,0,0,0,0,0,0,0,0,0,0,0,0,0,0,0,0,0,0,0,0,0,0,0,0,0,0,0,0,0,0,0,0,0,0,0,0,0,0,0,0,0,0,0,0,0,0,0,0,0,0,0,0,0,0,0,-1.8718,-1.8718,0,-1.8682,-1.8681,-1.8681,-1.8631,-1.863,-1.8629,-1.8628,-1.859,-1.859,-1.859,0,0,0,0,0,0,0,0,0,0,0,0,0,-1.8744,-1.8743,-1.8718,-1.8717,-1.8717,-1.8682,-1.8681,-1.8681,-1.8631,-1.863,-1.8629,-1.8628,-1.859,-1.859,-1.859,0,0,0,0,0,0,0,0,0,0,0,0,0,-1.8722,-1.8743,-1.8718,-1.8688,-1.8685,-1.8682,-1.8681,-1.868,-1.8631,-1.863,-1.8629,-1.8627,-1.859,-1.859,-1.8589,-1.8613,0,0,-1.8588,-1.8588,0,0,0,0,0,0,0,0,-1.8724,-1.8722,-1.8693,-1.869,-1.8687,-1.8659,-1.8676,-1.8658,-1.8631,-1.8651,-1.8628,-1.8627,-1.8614,-1.8612,-1.8608,-1.8611,-1.8609,-1.8588,-1.8588,-1.8588,-1.8588,0,0,0,0,0,0,0,-1.8725,-1.8723,-1.8703,-1.8692,-1.8689,-1.8676,-1.8672,-1.8672,-1.864,-1.865,-1.8646,-1.8642,-1.8612,-1.8608,-1.8606,-1.8609,-1.8588,-1.8588,-1.8588,-1.8588,-1.8629,-1.863,0,0,0,0,0,0,-1.8731,-1.8724,-1.8705,-1.8702,-1.8702,-1.8677,-1.8672,-1.8669,-1.864,-1.8634,-1.8643,-1.864,-1.8609,-1.8607,-1.8605,-1.863,-1.8588,-1.8588,-1.8587,-1.8628,-1.8629,-1.8631,0,0,0,0,0,0,-1.8732,-1.873,-1.8706,-1.8712,-1.8708,-1.8678,-1.8675,-1.8669,-1.8665,-1.8635,-1.8629,-1.8645,-1.8608,-1.8605,-1.8611,-1.8628,-1.8588,-1.8587,-1.8626,-1.8628,-1.863,-1.868,0,0,0,0,0,0,-1.8733,-1.8731,-1.8739,-1.8713,-1.8708,-1.8713,-1.8676,-1.867,-1.8665,-1.866,-1.8636,-1.863,-1.8607,-1.8612,-1.8611,-1.8627,-1.8587,-1.8624,-1.8627,-1.8629,-1.8677,-1.8684,-1.869,0,0,0,0,0,-1.8734,-1.8755,-1.874,-1.8738,-1.8718,-1.8714,-1.8712,-1.8685,-1.8666,-1.8675,-1.8656,-1.8631,-1.8626,-1.8613,-1.8611,-1.8627,-1.8623,-1.8626,-1.8629,-1.8674,-1.8683,-1.8689,0,0,0,0,0,0,-1.8783,-1.8751,-1.8734,-1.8747,-1.8734,-1.8706,-1.8716,-1.8694,-1.8686,-1.8682,-1.8649,-1.8644,-1.8654,-1.8641,-1.8627,-1.8648,-1.8621,-1.8624,-1.8656,-1.8664,-1.867,-1.8673,-1.8587,0,0,0,0,0,-1.8796,-1.8795,-1.8767,-1.8781,-1.8775,-1.8747,-1.8744,-1.8724,-1.871,-1.8704,-1.8685,-1.8672,-1.8667,-1.8664,-1.8659,-1.8675,-1.8669,-1.8685,-1.8692,-1.8697,-1.87,-1.8707,-1.8714,-1.864,-1.864,-1.864,0,0,-1.8821,-1.8803,-1.8805,-1.879,-1.8778,-1.8778,-1.8742,-1.8744,-1.8744,-1.8704,-1.8708,-1.8694,-1.8677,-1.8688,-1.8692,-1.8678,-1.8719,-1.8701,-1.8705,-1.8705,-1.8711,-1.8718,-1.8725,-1.8642,-1.8642,-1.8641,0,0,-1.8868,-1.8854,-1.8864,-1.8853,-1.8835,-1.8816,-1.8819,-1.8794,-1.8783,-1.8787,-1.8757,-1.8757,-1.8749,-1.8738,-1.8732,-1.8775,-1.8752,-1.8773,-1.8806,-1.8814,-1.882,-1.8825,-1.8841,-1.8846,-1.8776,-1.8776,-1.8777,0,-1.8901,-1.8901,-1.8872,-1.8876,-1.8871,-1.8835,-1.8845,-1.8835,-1.8816,-1.8813,-1.8797,-1.8787,-1.8773,-1.8781,-1.8792,-1.8788,-1.879,-1.8776,-1.8822,-1.8826,-1.8831,-1.8845,-1.8851,-1.8779,-1.8779,-1.8779,-1.8778,0,-1.8943,-1.8944,-1.8954,-1.8937,-1.8933,-1.894,-1.8912,-1.8911,-1.8892,-1.8874,-1.8879,-1.8861,-1.8851,-1.8851,-1.8832,-1.8857,-1.8849,-1.8828,-1.88,-1.8841,-1.8854,-1.8859,-1.8783,-1.8782,-1.8781,-1.8781,0,0,-1.902,-1.8987,-1.8991,-1.8983,-1.8961,-1.8961,-1.8966,-1.8956,-1.8956,-1.8944,-1.8948,-1.8943,-1.8924,-1.8916,-1.8896,-1.8903,-1.8938,-1.8881,-1.888,-1.8893,-1.8964,-1.898,-1.8987,-1.8923,-1.8924,-1.8925,-1.8966,0,-1.9062,-1.907,-1.9044,-1.9058,-1.9058,-1.9024,-1.9029,-1.9016,-1.9,-1.8997,-1.8979,-1.8976,-1.8951,-1.8946,-1.8952,-1.8933,-1.8952,-1.893,-1.8926,-1.8926,-1.8932,-1.8994,-1.901,-1.905,-1.8971,-1.8972,-1.8972,0,-1.9112,-1.9103,-1.9118,-1.9095,-1.9094,-1.9099,-1.9088,-1.9086,-1.9071,-1.9058,-1.9051,-1.9027,-1.9031,-1.9004,-1.9008,-1.8994,-1.8991,-1.8981,-1.8982,-1.8981,-1.8952,-1.8994,-1.9062,-1.9068,-1.898,-1.8979,-1.8979,0,-1.9166,-1.9158,-1.9166,-1.916,-1.9134,-1.9138,-1.9127,-1.911,-1.9106,-1.9097,-1.9094,-1.9085,-1.908,-1.9074,-1.9048,-1.9032,-1.9056,-1.9027,-1.9046,-1.9046,-1.9052,-1.9052,-1.9121,-1.9051,-1.905,-1.905,-1.905,0,-1.9216,-1.9226,-1.919,-1.9195,-1.9205,-1.9175,-1.9186,-1.9172,-1.9158,-1.9159,-1.9129,-1.913,-1.9097,-1.9095,-1.9075,-1.9082,-1.908,-1.907,-1.9065,-1.9073,-1.9074,-1.907,-1.9067,-1.9052,-1.9051,-1.9051,-1.9051,0,-1.9278,-1.9255,-1.9261,-1.9235,-1.9229,-1.9238,-1.9216,-1.9219,-1.9202,-1.9204,-1.9202,-1.9175,-1.9171,-1.9145,-1.9135,-1.9122,-1.9136,-1.9125,-1.9141,-1.9138,-1.9158,-1.9156,-1.9226,-1.9234,-1.9159,-1.916,-1.916,0,-1.9312,-1.9319,-1.9295,-1.9294,-1.9284,-1.9283,-1.9279,-1.925,-1.9247,-1.923,-1.9235,-1.9229,-1.9223,-1.9218,-1.9197,-1.9189,-1.9178,-1.9203,-1.9176,-1.9184,-1.9178,-1.9178,-1.9179,-1.9208,-1.9209,-1.921,-1.9211,0,-1.9374,-1.9362,-1.9357,-1.9349,-1.9345,-1.9337,-1.9327,-1.9327,-1.9296,-1.9294,-1.929,-1.9285,-1.9275,-1.9269,-1.9258,-1.9246,-1.9223,-1.9219,-1.9223,-1.9232,-1.9241,-1.9236,-1.9157,-1.9218,-1.9217,-1.9217,-1.9216,-1.9216,-1.9422,-1.9427,-1.9411,-1.9407,-1.9397,-1.9388,-1.939,-1.9373,-1.9369,-1.9359,-1.9343,-1.9341,-1.9325,-1.9308,-1.9298,-1.9296,-1.9283,-1.9289,-1.929,-1.9292,-1.9296,-1.9241,-1.9294,-1.9294,-1.9294,-1.9293,-1.9293,0,-1.9483,-1.9471,-1.9468,-1.9455,-1.9452,-1.9431,-1.9419,-1.9418,-1.9417,-1.9404,-1.9399,-1.9394,-1.9389,-1.9367,-1.9359,-1.9362,-1.9351,-1.9361,-1.936,-1.9358,-1.9309,-1.9306,-1.9369,-1.9369,-1.9369,-1.9369,-1.9369,-1.9369,-1.9514,-1.9521,-1.9507,-1.9509,-1.9497,-1.9495,-1.949,-1.9482,-1.9472,-1.9469,-1.9464,-1.945,-1.9434,-1.9425,-1.9419,-1.9412,-1.9411,-1.9424,-1.9414,-1.9369,-1.9361,-1.9354,-1.9352,-1.9424,-1.9424,-1.9464,-1.9464,-1.9465]}]]